Regional Weather Roundup
Issued by NWS Little Rock, AR

Home | Current Version | Previous Version | Graphics & Text | Print | Product List | Glossary On
Versions: 1 2 3 4 5 6 7 8 9 10 11 12 13 14 15 16 17 18 19 20 21 22 23 24 25 26 27 28 29 30 31 32 33 34 35 36 37 38 39 40 41 42 43 44 45 46 47 48 49 50
000
ASUS44 KLZK 161605
RWRLZK

WEATHER ROUNDUP FOR ARKANSAS
NATIONAL WEATHER SERVICE LITTLE ROCK AR
1100 AM CDT MON OCT 16 2017

NOTE: "FAIR" INDICATES FEW OR NO CLOUDS BELOW 12,000 FEET WITH NO
SIGNIFICANT WEATHER AND/OR OBSTRUCTIONS TO VISIBILITY.

ARZ001-003-010-029-161700-
NORTHWEST ARKANSAS

CITY           SKY/WX    TMP DP  RH WIND       PRES   REMARKS
FAYETTEVILLE   SUNNY     58  42  55 NE5       30.44R
FORT SMITH     SUNNY     60  42  51 E6        30.44S
HARRISON       SUNNY     58  37  45 VRB7      30.44S
BENTONVILLE    SUNNY     58  38  47 E9        30.46R
ROGERS         SUNNY     58  35  42 NE13      30.45R
SILOAM SPGS    SUNNY     58  38  47 VRB7      30.45R
HIGHFILL       SUNNY     60  41  49 E9        30.45R
SPRINGDALE     SUNNY     57  37  47 E9        30.45S
$$

ARZ004-005-016-161700-
NORTH CENTRAL ARKANSAS

CITY           SKY/WX    TMP DP  RH WIND       PRES   REMARKS
BATESVILLE     SUNNY     60  41  49 NE9       30.43S
FLIPPIN        SUNNY     59  42  53 SE5       30.44S
MTN HOME       SUNNY     60  40  47 VRB5      30.42S
$$

ARZ040-041-161700-
WEST CENTRAL ARKANSAS

CITY           SKY/WX    TMP DP  RH WIND       PRES   REMARKS
MENA           SUNNY     63  41  45 E8        30.42S
$$

ARZ009-017-025-026-028-161700-
NORTHEAST ARKANSAS

CITY           SKY/WX    TMP DP  RH WIND       PRES   REMARKS
CORNING        FAIR      59  43  55 N12       30.42R
JONESBORO      SUNNY     61  43  51 NE16      30.40F
NEWPORT        SUNNY     59  43  55 NE12      30.42S
WALNUT RIDGE   SUNNY     60  42  51 N10       30.42S
BLYTHEVILLE    SUNNY     61  43  51 NE13G25   30.40S
NW BLYTHEVILLE SUNNY     59  41  51 NE15G24   30.39S
$$

ARZ022-023-033-042-044-161700-
CENTRAL ARKANSAS

CITY           SKY/WX    TMP DP  RH WIND       PRES   REMARKS
LITTLE ROCK    MOSUNNY   61  43  51 NE12      30.42S
N LITTLE ROCK    N/A     60  45  57 NE9G20    30.44S
JACKSONVILLE   SUNNY     61  43  51 N16       30.41S
SEARCY         SUNNY     62  43  49 NE14G20   30.42S
HOT SPRINGS    SUNNY     62  42  47 NE15      30.42R
RUSSELLVILLE   SUNNY     61  42  49 E7        30.43R
CLINTON        FAIR      61  43  51 VRB6G15   30.43S
$$

ARZ036-161700-
EAST ARKANSAS

CITY           SKY/WX    TMP DP  RH WIND       PRES   REMARKS
WEST MEMPHIS   SUNNY     60  44  55 NE15G23   30.37F
$$

ARZ050-053-066-070-073-161700-
SOUTHWEST ARKANSAS

CITY           SKY/WX    TMP DP  RH WIND       PRES   REMARKS
ARKADELPHIA    FAIR      62  45  53 N10       30.42S
CAMDEN         SUNNY     64  41  42 NE13      30.40S
TEXARKANA      SUNNY     62  42  47 NE10      30.40S
EL DORADO      SUNNY     62  43  49 NE18G25   30.39R
DE QUEEN       SUNNY     64  44  48 E8        30.40S
$$

ARZ056-057-069-161700-
SOUTHEAST ARKANSAS

CITY           SKY/WX    TMP DP  RH WIND       PRES   REMARKS
PINE BLUFF     SUNNY     63  40  42 NE17G25   30.40F
STUTTGART      SUNNY     61  42  49 NE13G21   30.41S
MONTICELLO     SUNNY     62  41  46 NE16G26   30.38R

$$





USA.gov is the U.S. government's official web portal to all federal, state and local government web resources and services.